Lid_Strength_Index
10 11 14 12 11 11 12 13 14 13 11 12 13 12 12 10 10 11 10 9 10 11 11 10 9 9 9 9 8 7 5 5 4 2 2 2 2 1 2 1 0 0 0 0
13 15 12 10 10 12 13 14 15 13 11 13 14 13 12 12 11 11 10 12 13 13 12 12 11 11 11 10 10 9 8 7 5 4 3 1 2 1 1 2 2 0 0 1
15 13 11 12 13 14 15 15 15 15 13 13 14 16 14 12 14 14 14 13 13 13 12 11 10 10 10 10 10 9 9 8 7 6 3 2 1 1 1 2 2 1 1 1
15 12 12 13 14 14 16 13 14 15 16 19 15 19 17 16 16 15 16 14 13 12 10 9 8 8 9 8 8 7 7 7 7 7 6 4 3 3 2 1 2 2 2 1
15 13 13 15 14 14 15 13 14 15 17 19 18 19 19 15 16 16 14 12 11 11 9 8 8 7 6 6 6 6 6 6 6 7 7 5 3 2 1 1 2 1 2 2
14 12 13 14 13 13 13 15 16 17 18 22 19 19 20 16 14 15 13 11 10 9 9 7 6 5 5 5 5 5 5 6 6 6 7 5 4 2 2 2 2 2 2 3
15 15 13 12 15 13 15 18 22 23 22 22 17 18 17 14 12 11 11 10 9 8 8 7 6 6 6 6 6 5 5 6 6 7 7 5 4 3 2 2 2 2 3 3
20 19 15 13 15 17 17 17 20 23 23 20 16 19 16 13 11 10 8 8 8 8 7 6 6 6 6 6 5 6 5 6 6 6 7 5 4 3 2 2 2 2 2 2
19 19 14 13 13 13 16 18 14 17 17 20 18 16 13 10 10 9 9 8 7 8 7 6 6 6 6 6 6 7 6 6 6 6 6 4 3 2 2 1 1 2 2 2
17 20 15 13 13 13 14 13 17 16 24 23 19 18 16 13 11 9 9 8 8 8 7 7 7 6 5 6 6 6 6 6 5 5 4 4 3 2 1 2 2 2 2 2
16 18 18 15 15 16 15 16 15 15 15 20 21 19 12 11 10 10 9 8 8 7 8 8 7 6 6 5 6 6 5 6 6 6 5 4 4 2 2 2 1 2 2 2
15 18 21 18 13 12 13 15 14 20 22 18 18 17 9 10 9 8 8 8 8 8 7 7 7 7 5 5 6 6 6 6 6 6 6 5 4 3 2 3 3 1 2 3
13 18 22 20 17 14 15 13 12 14 17 17 18 17 9 9 8 7 7 6 8 8 7 7 7 7 6 6 6 6 6 6 6 7 6 6 6 4 4 3 3 2 1 3
10 15 16 18 16 15 15 13 12 14 16 17 16 15 11 10 9 8 8 8 9 9 8 8 8 8 7 6 6 6 7 6 6 6 7 6 6 5 4 2 2 2 1 2
10 16 15 14 13 12 13 13 13 14 13 16 14 14 12 10 9 8 9 9 9 7 7 8 7 8 8 7 6 6 6 6 6 7 7 6 5 5 4 4 2 2 1 2
12 16 15 16 13 13 14 13 12 12 12 12 12 13 9 8 10 10 9 9 8 7 7 7 7 7 7 6 6 5 6 6 6 7 7 6 6 5 5 4 3 3 2 1
14 14 14 18 14 14 17 13 12 12 13 12 16 14 12 11 9 9 8 7 7 7 7 7 6 7 7 6 5 6 6 6 7 7 7 7 6 6 6 5 4 3 2 2
14 15 12 16 16 21 14 11 11 12 11 12 12 11 10 9 8 7 7 7 8 7 7 6 6 6 6 5 6 5 6 6 7 7 7 7 6 7 7 6 5 2 2 2
11 12 14 19 18 15 12 11 13 14 13 10 10 9 9 9 9 10 7 7 7 7 6 6 5 5 6 5 5 6 6 7 7 7 7 7 6 7 7 7 6 3 2 3
11 12 14 15 18 19 14 10 8 10 16 9 8 9 9 10 13 11 8 7 6 6 5 5 4 4 5 4 5 6 6 7 8 6 6 6 6 8 8 7 6 3 3 4
19 18 17 15 16 14 9 8 8 15 15 9 8 8 9 11 10 8 7 6 5 5 5 3 4 5 5 5 5 6 6 8 7 6 6 6 7 8 7 7 4 4 5 5
20 23 20 17 16 18 8 9 12 10 8 8 8 8 8 8 7 7 6 5 5 5 5 4 5 5 5 4 5 6 6 6 6 5 7 7 8 8 6 6 5 5 6 7
19 15 13 14 15 9 8 8 7 7 8 7 9 8 7 8 8 6 6 6 6 6 5 5 5 5 4 5 5 5 5 5 5 6 7 8 8 8 7 5 5 6 7 8
14 11 14 14 10 9 9 7 6 6 8 7 8 7 8 8 6 6 6 6 6 6 6 5 6 6 7 6 5 4 4 5 6 7 7 8 8 7 5 5 6 7 7 8
11 12 13 13 11 9 9 7 7 7 7 8 7 8 7 7 7 7 6 6 6 7 6 6 7 7 7 6 5 5 5 6 6 7 7 7 8 7 6 5 6 6 7 7
11 12 15 15 10 10 9 7 7 7 8 8 8 8 6 6 6 6 6 6 7 6 6 6 7 7 7 6 6 5 5 6 7 8 8 8 8 6 6 6 7 5 6 6